Regional Weather Roundup
Issued by NWS Little Rock, AR

Home | Current Version | Previous Version | Text Only | Print | Product List | Glossary Off
Versions: 1 2 3 4 5 6 7 8 9 10 11 12 13 14 15 16 17 18 19 20 21 22 23 24 25 26 27 28 29 30 31 32

000
ASUS44 KLZK 240405
RWRLZK

WEATHER ROUNDUP FOR ARKANSAS
NATIONAL WEATHER SERVICE LITTLE ROCK AR
1100 PM CDT THU MAR 23 2017

NOTE: "FAIR" INDICATES FEW OR NO CLOUDS BELOW 12,000 FEET WITH NO
SIGNIFICANT WEATHER AND/OR OBSTRUCTIONS TO VISIBILITY.

ARZ001-003-010-029-240500-
NORTHWEST ARKANSAS

CITY           SKY/WX    TMP DP  RH WIND       PRES   REMARKS
FAYETTEVILLE   CLEAR     72  47  40 S26G43    29.91F
FORT SMITH     PTCLDY    71  47  42 E7        29.93S
HARRISON       CLEAR     68  46  45 SE15      29.99S
BENTONVILLE    CLEAR     72  46  40 S14G23    29.92F
ROGERS         CLEAR     70  48  45 S16       29.92F
SILOAM SPGS    CLEAR     72  46  40 S21G29    29.89F
HIGHFILL       CLEAR     71  48  43 S25G33    29.90F
$$

ARZ004-005-016-240500-
NORTH CENTRAL ARKANSAS

CITY           SKY/WX    TMP DP  RH WIND       PRES   REMARKS
BATESVILLE     CLEAR     72  52  49 SE7       30.05S
FLIPPIN        CLEAR     66  50  55 CALM      29.98S
MTN HOME       CLEAR     65  52  62 SE6       30.00S
$$

ARZ040-041-240500-
WEST CENTRAL ARKANSAS

CITY           SKY/WX    TMP DP  RH WIND       PRES   REMARKS
MENA           CLEAR     77  46  33 S12G29    29.99S
MOUNT IDA      PTCLDY    75  48  38 VRB6G16   30.00R
$$

ARZ009-017-025-026-028-240500-
NORTHEAST ARKANSAS

CITY           SKY/WX    TMP DP  RH WIND       PRES   REMARKS
CORNING        FAIR      63  55  77 SE10      30.06S
JONESBORO      CLEAR     65  54  67 S8        30.07S
NEWPORT        CLEAR     67  56  67 S15       30.06R
WALNUT RIDGE   CLEAR     64  54  68 SE10      30.05S
BLYTHEVILLE    CLEAR     68  53  58 S14       30.09S
$$

ARZ022-023-033-042-044-240500-
CENTRAL ARKANSAS

CITY           SKY/WX    TMP DP  RH WIND       PRES   REMARKS
LITTLE ROCK    CLEAR     68  53  58 S8        30.04S
N LITTLE ROCK    N/A     71  54  54 S8G16     30.05S
JACKSONVILLE   CLEAR     72  53  51 SE7       30.04S
CONWAY           N/A     70  52  52 SE9       30.01S
SEARCY         CLEAR     66  55  67 S7        30.06S
HOT SPRINGS    PTCLDY    74  48  39 S8        30.03S
RUSSELLVILLE   CLEAR     70  46  42 SE5       30.00S
CLINTON        FAIR      55  54  94 CALM      30.03S
$$

ARZ036-240500-
EAST ARKANSAS

CITY           SKY/WX    TMP DP  RH WIND       PRES   REMARKS
WEST MEMPHIS   CLEAR     68  54  60 S13       30.08S
$$

ARZ050-053-066-070-073-240500-
SOUTHWEST ARKANSAS

CITY           SKY/WX    TMP DP  RH WIND       PRES   REMARKS
ARKADELPHIA    FAIR      61  55  81 CALM      30.04R
CAMDEN         CLEAR     68  46  45 SE5       30.05R
TEXARKANA      CLEAR     69  50  50 S9        30.02R
EL DORADO      PTCLDY    71  47  42 S8        30.06R
DE QUEEN       PTCLDY    73  51  46 S9        29.98R
$$

ARZ056-057-069-240500-
SOUTHEAST ARKANSAS

CITY           SKY/WX    TMP DP  RH WIND       PRES   REMARKS
PINE BLUFF     CLEAR     66  51  58 S7        30.06S
STUTTGART      CLEAR     66  48  52 SE10      30.07S
MONTICELLO     CLEAR     68  52  56 S5        30.07S

$$






USA.gov is the U.S. government's official web portal to all federal, state and local government web resources and services.